Location: Unspecified
(0.0000°N, 0.0000°E)
Time: 02:18:46
(UTC+00:00)

COSMOS 2391 - Pass Details

Date: 10 June 2023
Orbit: 1466 x 1505 km, 82.5° (Epoch: 29 September)

Event Time Altitude Azimuth Distance (km) Brightness Sun altitude
Exits shadow 04:57:49 17° 257° (WSW) 3,133 9.5 -14.1°
Maximum altitude 04:59:45 18° 273° (W) 3,049 9.5 -13.7°
Drops below altitude 10° 05:05:14 10° 313° (NW) 3,640 10.2 -12.4°
Sets 05:09:22 0° 330° (NNW) 4,612 11.0 -11.5°
